Wichita, KS

2:36 PM CDT on March 23, 2017 (GMT -0500)
Wichita Eisenhower National Airport

Weather History for KICT - May, 2013

Change the Weather History Date:

Tuesday, May 21, 2013

  Actual Average Record
Temperature  
Mean Temperature 65 °F 68 °F  
Max Temperature 73 °F 78 °F 99 °F (1925)
Min Temperature 56 °F 57 °F 36 °F (1967)
Degree Days  
Heating Degree Days 0 2  
Month to date heating degree days 116 68  
Since 1 July heating degree days 4474 4576  
Cooling Degree Days 0 4  
Month to date cooling degree days 51 56  
Year to date cooling degree days 67 82  
Growing Degree Days 14 (Base 50)    
Moisture  
Dew Point 50 °F    
Average Humidity 59    
Maximum Humidity 77    
Minimum Humidity 41    
Precipitation  
Precipitation 0.00 in 0.15 in 3.05 in (1891)
Month to date precipitation 3.32 2.97  
Year to date precipitation 11.92 10.26  
Snow  
Snow 0.00 in 0.00 in 0.00 in (2007)
Month to date snowfall T 0.0  
Since 1 July snowfall 30.0 14.9  
Snow Depth 0.00 in    
Sea Level Pressure  
Sea Level Pressure 29.79 in    
Wind  
Wind Speed 8 mph (WNW)    
Max Wind Speed 15 mph    
Max Gust Speed 22 mph    
Visibility 10 miles    
Events      
T = Trace of Precipitation, MM = Missing Value Source: NWS Daily Summary

Daily Weather History Graph

Daily Weather History Graph

Search for Another Location

Airport or City:

Trip Planner

Search our weather history database for the weather conditions in past years. The results will help you decide how hot, cold, wet, or windy it might be!

Date:

Astronomy

May. 21, 2013 Rise Set
Actual Time 6:15 AM CDT 8:37 PM CDT
Civil Twilight 5:45 AM CDT 9:07 PM CDT
Nautical Twilight 5:08 AM CDT 9:44 PM CDT
Astronomical Twilight 4:28 AM CDT 10:25 PM CDT
Moon 4:56 PM CDT (5/21) 3:39 AM CDT (5/21)
Length of Visible Light 15h 22m
Length of Day
14h 22m
Waxing Gibbous, 84% of the Moon is Illuminated
May 21
Waxing Gibbous
May 24
Full
May 31
Last Quarter
Jun 8
New
Jun 16
First Quarter

Hourly Weather History & Observations

Time (CDT) Temp. Dew Point Humidity Pressure Visibility Wind Dir Wind Speed Gust Speed Precip Events Conditions
12:53 AM 64.9 °F 50.0 °F 58% 29.79 in 10.0 mi NW 12.7 mph - N/A   Scattered Clouds
1:53 AM 61.0 °F 48.9 °F 64% 29.80 in 10.0 mi WNW 4.6 mph - N/A   Scattered Clouds
2:53 AM 57.9 °F 48.9 °F 72% 29.78 in 10.0 mi WNW 8.1 mph - N/A   Scattered Clouds
3:53 AM 57.9 °F 48.0 °F 70% 29.78 in 10.0 mi WNW 9.2 mph - N/A   Scattered Clouds
4:53 AM 57.0 °F 48.0 °F 72% 29.78 in 10.0 mi WNW 11.5 mph - N/A   Scattered Clouds
5:53 AM 55.9 °F 48.0 °F 75% 29.79 in 10.0 mi WNW 10.4 mph - N/A   Scattered Clouds
6:53 AM 55.9 °F 48.0 °F 75% 29.80 in 10.0 mi WNW 10.4 mph - N/A   Scattered Clouds
7:53 AM 59.0 °F 48.9 °F 69% 29.82 in 10.0 mi NW 13.8 mph - N/A   Scattered Clouds
8:53 AM 62.1 °F 50.0 °F 65% 29.82 in 10.0 mi NW 15.0 mph - N/A   Scattered Clouds
9:53 AM 64.9 °F 51.1 °F 61% 29.81 in 10.0 mi NNW 10.4 mph - N/A   Partly Cloudy
10:53 AM 66.9 °F 51.1 °F 57% 29.82 in 10.0 mi NW 11.5 mph - N/A   Mostly Cloudy
11:53 AM 69.1 °F 51.1 °F 53% 29.81 in 10.0 mi NW 8.1 mph 17.3 mph N/A   Mostly Cloudy
12:53 PM 70.0 °F 50.0 °F 49% 29.83 in 10.0 mi West 5.8 mph - N/A   Mostly Cloudy
1:53 PM 69.1 °F 50.0 °F 51% 29.85 in 10.0 mi WSW 10.4 mph - N/A   Mostly Cloudy
2:53 PM 71.1 °F 50.0 °F 47% 29.79 in 10.0 mi Calm Calm - N/A   Mostly Cloudy
3:53 PM 70.0 °F 50.0 °F 49% 29.77 in 10.0 mi WNW 6.9 mph - N/A   Mostly Cloudy
4:53 PM 72.0 °F 48.9 °F 44% 29.75 in 10.0 mi WNW 5.8 mph - N/A   Mostly Cloudy
5:53 PM 73.0 °F 48.9 °F 42% 29.73 in 10.0 mi West 8.1 mph - N/A   Scattered Clouds
6:53 PM 72.0 °F 48.9 °F 44% 29.72 in 10.0 mi West 6.9 mph - N/A   Scattered Clouds
7:53 PM 70.0 °F 48.9 °F 47% 29.73 in 10.0 mi West 5.8 mph - N/A   Scattered Clouds
8:53 PM 64.0 °F 51.1 °F 63% 29.75 in 10.0 mi SSW 5.8 mph - N/A   Scattered Clouds
9:53 PM 63.0 °F 52.0 °F 67% 29.76 in 10.0 mi WSW 3.5 mph - N/A   Scattered Clouds
10:53 PM 61.0 °F 51.1 °F 70% 29.79 in 10.0 mi WSW 8.1 mph - N/A   Scattered Clouds
11:53 PM 61.0 °F 51.1 °F 70% 29.79 in 10.0 mi WNW 8.1 mph - N/A   Scattered Clouds